[[{"header":{"parameterUnit":"m.s-1","parameterCategory":1,"la1":30.2991,"la2":30.254,"lo1":-89.0895,"lo2":-89.0444,"dy":0.0017,"dx":0.0017,"nx":28,"ny":28,"refTime":"2024-05-04T03:00:00:Z","depth":0,"parameterNumber":2,"parameterNumberName":"U-component_of_WINDS"},"data":[0,0,0,0,0,0,0,0,0,0,0,0,0,0,0,0,0,0,0,0,0,0,0,0,0,0,0,0,0,0,0,0,0,0,0,0,0,0,0,0,0,0,0,0,0,0,0,0,0,0,0,0,0,0,0,0,0,0,-2.4672,-2.4672,0,-2.471,-2.4711,-2.4711,-2.4672,-2.4671,-2.4669,-2.4668,-2.4707,-2.4709,-2.4712,0,0,0,0,0,0,0,0,0,0,0,0,0,-2.4565,-2.4567,-2.4671,-2.4672,-2.4672,-2.471,-2.4711,-2.4711,-2.4672,-2.467,-2.4669,-2.4667,-2.4706,-2.4709,-2.4712,0,0,0,0,0,0,0,0,0,0,0,0,0,-2.4608,-2.4567,-2.4671,-2.4658,-2.4657,-2.471,-2.4711,-2.4711,-2.4673,-2.467,-2.4668,-2.4666,-2.4705,-2.4709,-2.4712,-2.4781,0,0,-2.4724,-2.4725,0,0,0,0,0,0,0,0,-2.4605,-2.4612,-2.4659,-2.4659,-2.4658,-2.4684,-2.4687,-2.4735,-2.4673,-2.4667,-2.4668,-2.4665,-2.4701,-2.4705,-2.4717,-2.4783,-2.4784,-2.4724,-2.4726,-2.4728,-2.4729,0,0,0,0,0,0,0,-2.4603,-2.461,-2.4687,-2.466,-2.4659,-2.465,-2.4653,-2.4696,-2.4696,-2.4667,-2.4664,-2.4669,-2.47,-2.4714,-2.4718,-2.4785,-2.4724,-2.4727,-2.4729,-2.4731,-2.4909,-2.4912,0,0,0,0,0,0,-2.4601,-2.4608,-2.4685,-2.4688,-2.4626,-2.4653,-2.4658,-2.4678,-2.4696,-2.4696,-2.4671,-2.4668,-2.4709,-2.4714,-2.4719,-2.48,-2.4728,-2.4731,-2.4733,-2.4907,-2.491,-2.4912,0,0,0,0,0,0,-2.4599,-2.4608,-2.4684,-2.4647,-2.4656,-2.4658,-2.4681,-2.468,-2.4693,-2.4699,-2.4699,-2.4685,-2.4707,-2.4714,-2.4766,-2.4801,-2.4733,-2.4736,-2.4904,-2.4908,-2.4911,-2.4964,0,0,0,0,0,0,-2.4596,-2.4608,-2.4634,-2.4648,-2.4658,-2.473,-2.4683,-2.4682,-2.47,-2.4695,-2.4712,-2.4712,-2.4706,-2.4761,-2.477,-2.4805,-2.4739,-2.4901,-2.4905,-2.491,-2.4959,-2.4969,-2.4977,0,0,0,0,0,-2.4592,-2.4647,-2.4635,-2.4645,-2.4691,-2.4732,-2.4738,-2.4729,-2.4703,-2.4729,-2.4733,-2.4712,-2.4796,-2.4766,-2.4776,-2.4813,-2.4898,-2.4904,-2.491,-2.4955,-2.4967,-2.4977,0,0,0,0,0,0,-2.4636,-2.4648,-2.4636,-2.4696,-2.4714,-2.4726,-2.4758,-2.4743,-2.4768,-2.4762,-2.475,-2.4755,-2.481,-2.4817,-2.4783,-2.4881,-2.4843,-2.4851,-2.4874,-2.4886,-2.4895,-2.4891,-2.4742,0,0,0,0,0,-2.4653,-2.4686,-2.4695,-2.4748,-2.4757,-2.4756,-2.4774,-2.4766,-2.4783,-2.479,-2.4798,-2.4816,-2.4846,-2.4866,-2.4895,-2.496,-2.4963,-2.4991,-2.5,-2.5008,-2.5014,-2.5049,-2.5062,-2.4931,-2.4931,-2.4931,0,0,-2.4688,-2.4699,-2.472,-2.4757,-2.4769,-2.4803,-2.4763,-2.4801,-2.4826,-2.4796,-2.4846,-2.4852,-2.4871,-2.493,-2.4957,-2.4938,-2.5051,-2.5015,-2.5021,-2.5023,-2.5057,-2.5069,-2.508,-2.4935,-2.4934,-2.4934,0,0,-2.4769,-2.4781,-2.4826,-2.484,-2.4859,-2.4858,-2.4869,-2.4884,-2.4887,-2.4937,-2.4915,-2.4946,-2.4998,-2.5013,-2.5027,-2.5115,-2.5097,-2.5125,-2.5173,-2.5207,-2.5218,-2.5227,-2.5258,-2.5269,-2.5132,-2.5132,-2.5132,0,-2.481,-2.4861,-2.4851,-2.4891,-2.4908,-2.4883,-2.4929,-2.4942,-2.497,-2.4982,-2.4961,-2.5027,-2.5038,-2.51,-2.5122,-2.5135,-2.5147,-2.5122,-2.5217,-2.5226,-2.5234,-2.5264,-2.5275,-2.5135,-2.5135,-2.5134,-2.5134,0,-2.491,-2.4946,-2.498,-2.5008,-2.5028,-2.5071,-2.5068,-2.509,-2.5081,-2.5083,-2.5134,-2.5147,-2.5177,-2.5192,-2.5183,-2.5253,-2.5241,-2.5219,-2.518,-2.525,-2.5277,-2.5289,-2.5139,-2.5138,-2.5137,-2.5137,0,0,-2.5018,-2.5041,-2.5054,-2.5066,-2.5086,-2.5114,-2.5156,-2.5186,-2.5205,-2.5226,-2.526,-2.5306,-2.5286,-2.5302,-2.5295,-2.5326,-2.5394,-2.53,-2.53,-2.5316,-2.5472,-2.5488,-2.5501,-2.5383,-2.5385,-2.5387,-2.547,0,-2.51,-2.5172,-2.5165,-2.5234,-2.5267,-2.5244,-2.5281,-2.5297,-2.5301,-2.5329,-2.5332,-2.5365,-2.5336,-2.5346,-2.5375,-2.538,-2.5425,-2.5374,-2.5415,-2.5416,-2.541,-2.5516,-2.5532,-2.5611,-2.5481,-2.5483,-2.5484,0,-2.5204,-2.5228,-2.53,-2.5316,-2.5329,-2.5362,-2.5389,-2.5417,-2.5436,-2.5436,-2.5455,-2.5442,-2.5485,-2.5447,-2.5505,-2.547,-2.5486,-2.5491,-2.5494,-2.5497,-2.5454,-2.5521,-2.5636,-2.5647,-2.5501,-2.55,-2.5499,0,-2.5275,-2.5326,-2.5375,-2.5387,-2.5407,-2.543,-2.544,-2.5456,-2.5475,-2.5499,-2.5511,-2.554,-2.5556,-2.5578,-2.5574,-2.5547,-2.5634,-2.5595,-2.5635,-2.5635,-2.5653,-2.5652,-2.5772,-2.5666,-2.5665,-2.5665,-2.5665,0,-2.5366,-2.5411,-2.5408,-2.5438,-2.5488,-2.548,-2.553,-2.5536,-2.5551,-2.5583,-2.5566,-2.5596,-2.5589,-2.5619,-2.5616,-2.5665,-2.5672,-2.5674,-2.5672,-2.5675,-2.5674,-2.5685,-2.5679,-2.5668,-2.5668,-2.5667,-2.5667,0,-2.5453,-2.5453,-2.5506,-2.5521,-2.5525,-2.5561,-2.5574,-2.5603,-2.5605,-2.5645,-2.5654,-2.5658,-2.5692,-2.5691,-2.573,-2.5728,-2.5788,-2.5781,-2.5782,-2.578,-2.5819,-2.5816,-2.5949,-2.5966,-2.585,-2.5851,-2.5852,0,-2.5511,-2.5545,-2.5563,-2.5583,-2.5594,-2.5626,-2.5646,-2.564,-2.566,-2.5685,-2.5711,-2.5744,-2.577,-2.5826,-2.5832,-2.5862,-2.5855,-2.59,-2.5859,-2.5861,-2.5855,-2.5853,-2.5856,-2.5907,-2.5909,-2.591,-2.5911,0,-2.5613,-2.5611,-2.5639,-2.5668,-2.5692,-2.5714,-2.5734,-2.5752,-2.5748,-2.5773,-2.5808,-2.5828,-2.5868,-2.5901,-2.593,-2.594,-2.5925,-2.5924,-2.5934,-2.5937,-2.5936,-2.5936,-2.5802,-2.592,-2.5919,-2.5919,-2.5918,-2.5918,-2.5687,-2.5716,-2.5733,-2.5766,-2.5781,-2.58,-2.5828,-2.5834,-2.5863,-2.5896,-2.5891,-2.593,-2.5948,-2.5986,-2.5998,-2.6029,-2.6013,-2.6029,-2.6033,-2.6036,-2.6041,-2.5932,-2.6035,-2.6034,-2.6034,-2.6034,-2.6034,0,-2.5787,-2.5798,-2.5827,-2.5857,-2.5882,-2.5867,-2.5889,-2.5911,-2.5946,-2.5964,-2.599,-2.6031,-2.6063,-2.6072,-2.6104,-2.6127,-2.612,-2.6135,-2.6133,-2.6135,-2.6053,-2.6041,-2.6139,-2.6139,-2.6139,-2.6139,-2.6139,-2.6139,-2.5842,-2.5891,-2.5892,-2.5948,-2.5958,-2.5996,-2.601,-2.6029,-2.6043,-2.6089,-2.6116,-2.6122,-2.6137,-2.6169,-2.6198,-2.62,-2.6212,-2.6229,-2.6228,-2.6151,-2.6141,-2.6131,-2.6119,-2.6232,-2.6232,-2.6307,-2.6308,-2.6308]},{"header":{"parameterUnit":"m.s-1","parameterCategory":1,"la1":30.2991,"la2":30.254,"lo1":-89.0895,"lo2":-89.0444,"dy":0.0017,"dx":0.0017,"nx":28,"ny":28,"refTime":"2024-05-04T03:00:00:Z","depth":0,"parameterNumber":3,"parameterNumberName":"V-component_of_WINDS"},"data":[0,0,0,0,0,0,0,0,0,0,0,0,0,0,0,0,0,0,0,0,0,0,0,0,0,0,0,0,0,0,0,0,0,0,0,0,0,0,0,0,0,0,0,0,0,0,0,0,0,0,0,0,0,0,0,0,0,0,1.7532,1.7532,0,1.7554,1.7555,1.7555,1.7536,1.7535,1.7534,1.7533,1.7555,1.7556,1.7558,0,0,0,0,0,0,0,0,0,0,0,0,0,1.7471,1.7473,1.7532,1.7532,1.7532,1.7554,1.7555,1.7555,1.7536,1.7535,1.7534,1.7533,1.7554,1.7556,1.7558,0,0,0,0,0,0,0,0,0,0,0,0,0,1.7496,1.7473,1.7532,1.7525,1.7525,1.7554,1.7555,1.7555,1.7536,1.7535,1.7534,1.7533,1.7554,1.7556,1.7558,1.7594,0,0,1.7564,1.7565,0,0,0,0,0,0,0,0,1.7495,1.7498,1.7526,1.7526,1.7526,1.7541,1.7541,1.7568,1.7536,1.7532,1.7533,1.7532,1.7551,1.7553,1.756,1.7595,1.7596,1.7564,1.7565,1.7566,1.7567,0,0,0,0,0,0,0,1.7493,1.7497,1.7541,1.7527,1.7526,1.7521,1.7524,1.7546,1.7548,1.7532,1.7531,1.7534,1.7551,1.7558,1.756,1.7596,1.7564,1.7566,1.7567,1.7568,1.7663,1.7665,0,0,0,0,0,0,1.7492,1.7496,1.754,1.7541,1.7507,1.7524,1.7526,1.7537,1.7548,1.7548,1.7535,1.7533,1.7555,1.7558,1.7561,1.7605,1.7566,1.7568,1.7569,1.7662,1.7664,1.7665,0,0,0,0,0,0,1.7491,1.7496,1.7539,1.7518,1.7524,1.7526,1.7539,1.7538,1.7546,1.755,1.755,1.7542,1.7555,1.7558,1.7586,1.7606,1.7569,1.7571,1.766,1.7663,1.7664,1.7693,0,0,0,0,0,0,1.7489,1.7496,1.751,1.7519,1.7525,1.7564,1.754,1.754,1.7549,1.7547,1.7557,1.7557,1.7554,1.7584,1.7588,1.7608,1.7572,1.7659,1.7661,1.7664,1.769,1.7695,1.77,0,0,0,0,0,1.7487,1.7516,1.751,1.7516,1.7542,1.7565,1.7568,1.7565,1.7551,1.7565,1.7568,1.7557,1.7603,1.7587,1.7592,1.7612,1.7657,1.7661,1.7664,1.7688,1.7694,1.77,0,0,0,0,0,0,1.7508,1.7517,1.7511,1.7544,1.7554,1.7562,1.7579,1.7572,1.7586,1.7583,1.7577,1.758,1.761,1.7613,1.7595,1.7648,1.7628,1.7632,1.7645,1.7651,1.7656,1.7654,1.7574,0,0,0,0,0,1.7516,1.7535,1.7542,1.757,1.7576,1.7577,1.7587,1.7583,1.7593,1.7597,1.7602,1.7612,1.7629,1.764,1.7656,1.7691,1.7693,1.7707,1.7712,1.7716,1.772,1.774,1.7747,1.7675,1.7675,1.7675,0,0,1.7534,1.7541,1.7553,1.7574,1.7582,1.7601,1.758,1.7601,1.7616,1.76,1.7628,1.7632,1.7642,1.7675,1.7689,1.7679,1.7741,1.772,1.7724,1.7725,1.7744,1.7751,1.7757,1.7677,1.7677,1.7677,0,0,1.7575,1.7583,1.7608,1.7616,1.7628,1.7629,1.7635,1.7645,1.7647,1.7675,1.7664,1.7681,1.771,1.7719,1.7727,1.7774,1.7765,1.7779,1.7806,1.7825,1.7831,1.7836,1.7854,1.786,1.7783,1.7783,1.7783,0,1.7595,1.7624,1.7621,1.7644,1.7654,1.7642,1.7668,1.7676,1.7692,1.77,1.7688,1.7725,1.7732,1.7766,1.7778,1.7785,1.7792,1.7778,1.783,1.7835,1.784,1.7857,1.7863,1.7785,1.7785,1.7785,1.7784,0,1.7649,1.7669,1.7688,1.7706,1.7718,1.7742,1.7742,1.7755,1.7751,1.7753,1.7782,1.7789,1.7807,1.7815,1.7811,1.785,1.7843,1.7831,1.7811,1.7849,1.7864,1.7871,1.7787,1.7787,1.7786,1.7786,0,0,1.7703,1.772,1.7727,1.7736,1.7749,1.7765,1.7788,1.7807,1.7818,1.783,1.785,1.7876,1.7866,1.7875,1.7872,1.7889,1.7928,1.7875,1.7875,1.7885,1.7972,1.7981,1.7989,1.7922,1.7923,1.7924,1.7971,0,1.7746,1.7788,1.7787,1.7826,1.7845,1.7835,1.7856,1.7867,1.787,1.7887,1.789,1.7909,1.7893,1.7899,1.7916,1.7919,1.7945,1.7916,1.794,1.7941,1.7938,1.7997,1.8006,1.805,1.7977,1.7978,1.7979,0,1.7801,1.7817,1.7858,1.7871,1.7879,1.7898,1.7915,1.7931,1.7944,1.7945,1.7956,1.7951,1.7975,1.7954,1.7988,1.7968,1.7979,1.7982,1.7984,1.7986,1.7963,1.8001,1.8064,1.8071,1.7989,1.7988,1.7987,0,1.7838,1.7869,1.7898,1.7906,1.7921,1.7934,1.7941,1.7952,1.7964,1.7979,1.7987,1.8004,1.8014,1.8027,1.8027,1.8012,1.8062,1.804,1.8064,1.8064,1.8074,1.8074,1.8141,1.808,1.808,1.808,1.808,0,1.7886,1.7912,1.7915,1.7933,1.7962,1.7961,1.7989,1.7995,1.8005,1.8024,1.8016,1.8034,1.8032,1.8051,1.805,1.8079,1.8083,1.8085,1.8085,1.8086,1.8086,1.8092,1.809,1.8082,1.8082,1.8081,1.8081,0,1.7932,1.7935,1.7966,1.7978,1.7982,1.8003,1.8013,1.8031,1.8034,1.8058,1.8064,1.8068,1.8089,1.809,1.8114,1.8114,1.815,1.8145,1.8146,1.8145,1.8168,1.8167,1.8242,1.8253,1.8185,1.8186,1.8186,0,1.7963,1.7983,1.7998,1.801,1.8018,1.8038,1.8051,1.805,1.8063,1.808,1.8095,1.8116,1.8132,1.8167,1.8172,1.8191,1.8188,1.8213,1.819,1.8191,1.8189,1.8188,1.819,1.8217,1.8218,1.8219,1.8219,0,1.8017,1.8019,1.8037,1.8056,1.8072,1.8087,1.8101,1.8111,1.8112,1.8128,1.815,1.8163,1.8188,1.8209,1.8228,1.8234,1.8227,1.8226,1.8233,1.8235,1.8234,1.8236,1.8158,1.8225,1.8224,1.8224,1.8223,1.8223,1.8057,1.8075,1.8089,1.811,1.8121,1.8135,1.8152,1.8158,1.8177,1.8198,1.8196,1.8221,1.8234,1.8259,1.8267,1.8286,1.8278,1.8287,1.8289,1.8292,1.8295,1.8231,1.829,1.8289,1.8289,1.8289,1.8289,0,1.8112,1.8121,1.8141,1.8161,1.8178,1.8171,1.8187,1.8201,1.8223,1.8236,1.8253,1.828,1.83,1.8308,1.8328,1.8342,1.834,1.8347,1.8347,1.8349,1.8301,1.8293,1.8349,1.8349,1.8349,1.8349,1.8349,1.8349,1.8143,1.8174,1.8176,1.8212,1.8221,1.8246,1.8256,1.8268,1.8279,1.8309,1.8326,1.8332,1.8343,1.8364,1.8383,1.8384,1.8393,1.8402,1.8403,1.8358,1.8352,1.8346,1.8339,1.8404,1.8404,1.8449,1.8449,1.845]}]]